Location: Newark
(45.5000°N, 11.4167°E)
Time: 13:49:45
(UTC+00:00)

A-11 Canister half - Pass Details

Date: 28 August 2019
Orbit: 1513 x 1686 km, 47.2° (Epoch: 18 September)

Event Time Altitude Azimuth Distance (km) Brightness Sun altitude
Rises 17:49:08 0° 264° (W) 4,681 13.3 1.1°
Reaches altitude 10° 17:52:08 10° 265° (W) 3,714 12.7 0.5°
Maximum altitude 18:01:35 82° 354° (N) 1,594 9.2 -1.1°
Drops below altitude 10° 18:11:25 10° 83° (E) 3,849 10.5 -2.7°
Sets 18:14:36 0° 84° (E) 4,858 11.0 -3.3°
Enters shadow 18:14:36 - 84° (E) 4,860 11.0 -3.3°
